Weather reports worldwide

Advertisment
Brindisi, Italy (16320): temperature & dewpoint: 09.09.2019 10:00:00 - 15.09.2019 10:00:00 (CEST)Brindisi, Italy (16320): wind speed: 09.09.2019 10:00:00 - 15.09.2019 10:00:00 (CEST)Brindisi, Italy (16320): wind direction: 09.09.2019 10:00:00 - 15.09.2019 10:00:00 (CEST)Brindisi, Italy (16320): reduced air pressure: 09.09.2019 10:00:00 - 15.09.2019 10:00:00 (CEST)Brindisi, Italy (16320): visibility: 09.09.2019 10:00:00 - 15.09.2019 10:00:00 (CEST)Brindisi, Italy (16320): precipitation: 09.09.2019 10:00:00 - 15.09.2019 10:00:00 (CEST)
Date & Time tt [°C] td [°C] ff [km/h] ff [kn] dd ppp [hPa] vv [km] rr [mm]
15.09.2019 10:00:00 26,0 18,0 18 10 N - 10 -
15.09.2019 09:00:00 25,0 17,0 16 9 NNW - 10 -
15.09.2019 08:00:00 25,0 17,7 13 7 NNW 1022,5 10 -
15.09.2019 07:00:00 - - - - - - - -
15.09.2019 06:00:00 - - - - - - - -
15.09.2019 05:00:00 24,4 16,9 15 8 NNW 1022,1 - 0,0
15.09.2019 04:00:00 - - - - - - - -
15.09.2019 03:00:00 - - - - - - - -
15.09.2019 02:00:00 24,3 19,7 18 10 NNW 1022,4 - -
15.09.2019 01:00:00 - - - - - - - -
15.09.2019 00:00:00 - - - - - - - -
14.09.2019 23:00:00 24,1 18,9 21 11 NNW 1023,1 10 0,0
14.09.2019 22:00:00 24,0 18,0 18 10 NNW - 10 -
14.09.2019 21:00:00 24,0 17,0 22 12 NNW - 10 -
14.09.2019 20:00:00 24,1 17,6 24 13 NNW 1022,3 10 -
14.09.2019 19:00:00 24,0 17,0 28 15 NNW - 10 -
14.09.2019 18:00:00 25,0 16,0 24 13 NNW - 10 -
14.09.2019 17:00:00 25,8 16,0 22 12 NNW 1022,4 10 0,0
14.09.2019 16:00:00 27,0 18,0 22 12 NNW - 10 -
14.09.2019 15:00:00 27,0 15,0 22 12 N - 10 -
14.09.2019 14:00:00 26,7 14,9 24 13 N 1024,2 10 -
14.09.2019 13:00:00 27,0 16,0 24 13 N - 10 -
14.09.2019 12:00:00 27,0 15,0 28 15 NNE - 10 -
14.09.2019 11:00:00 26,7 15,2 26 14 NNE 1024,6 10 0,0
14.09.2019 10:00:00 26,0 16,0 24 13 NNE - 10 -
14.09.2019 09:00:00 26,0 17,0 22 12 NE - 10 -
14.09.2019 08:00:00 25,5 16,9 29 16 NE 1023,3 10 -
14.09.2019 07:00:00 25,0 17,0 24 13 NNE - 10 -
14.09.2019 06:00:00 23,0 19,0 16 9 NW - 10 -
14.09.2019 05:00:00 22,6 18,9 28 15 WNW 1023,0 10 0,0
14.09.2019 04:00:00 23,0 20,0 35 19 WNW - 10 -
14.09.2019 03:00:00 24,0 19,0 21 11 WNW - 10 -
14.09.2019 02:00:00 24,5 20,0 21 11 NNW 1023,6 - -
14.09.2019 01:00:00 25,0 19,0 29 16 NNW - 10 -
14.09.2019 00:00:00 25,0 19,0 26 14 NNW - 10 -
13.09.2019 23:00:00 24,8 18,9 24 13 NNW 1024,2 10 0,0
13.09.2019 22:00:00 25,0 18,0 21 11 NNW - 10 -
13.09.2019 21:00:00 25,0 18,0 26 14 NW - 10 -
13.09.2019 20:00:00 24,8 17,8 22 12 NNW 1023,7 10 -
13.09.2019 19:00:00 26,0 16,0 26 14 NNW - 10 -
13.09.2019 18:00:00 26,0 16,0 29 16 NNW - 10 -
13.09.2019 17:00:00 26,7 14,9 26 14 NNW 1023,4 10 0,0
13.09.2019 16:00:00 27,0 17,0 24 13 NNW - 10 -
13.09.2019 15:00:00 - - - - - - - -
13.09.2019 14:00:00 27,7 16,9 24 13 N 1024,1 10 -
13.09.2019 13:00:00 28,0 17,0 24 13 N - 10 -
13.09.2019 12:00:00 28,0 17,0 24 13 N - 10 -
13.09.2019 11:00:00 26,9 16,9 28 15 N 1025,3 10 0,0
13.09.2019 10:00:00 27,0 14,0 31 17 NNE - 10 -
13.09.2019 09:00:00 27,0 18,0 29 16 NNE - 10 -
13.09.2019 08:00:00 25,9 17,9 26 14 NNE 1024,1 10 -
13.09.2019 07:00:00 25,0 16,0 29 16 NNE - 10 -
13.09.2019 06:00:00 26,0 15,0 31 17 NNE - 10 -
13.09.2019 05:00:00 25,6 17,2 24 13 NNE 1023,1 10 0,0
13.09.2019 04:00:00 26,0 18,0 24 13 NNE - 10 -
13.09.2019 03:00:00 25,0 20,0 16 9 NNW - 10 -
13.09.2019 02:00:00 24,8 21,4 24 13 N 1023,2 10 -
13.09.2019 01:00:00 25,0 21,0 26 14 NNW - 10 -
13.09.2019 00:00:00 25,0 21,0 28 15 NNW - 10 -
12.09.2019 23:00:00 24,4 20,2 28 15 NNW 1023,6 10 0,0
12.09.2019 22:00:00 24,0 21,0 26 14 NNW - 10 -
12.09.2019 21:00:00 24,0 20,0 29 16 NNW - 10 -
12.09.2019 20:00:00 24,3 20,0 29 16 NNW 1023,2 10 -
12.09.2019 19:00:00 25,0 20,0 24 13 NNW - 10 -
12.09.2019 18:00:00 25,0 20,0 26 14 NW - 10 -
12.09.2019 17:00:00 25,6 19,2 29 16 NNW 1022,7 10 0,0
12.09.2019 16:00:00 26,0 19,0 28 15 NW - 10 -
12.09.2019 15:00:00 26,0 19,0 29 16 NW - 10 -
12.09.2019 14:00:00 25,9 18,9 29 16 NNW 1023,6 10 -
12.09.2019 13:00:00 26,0 19,0 29 16 NNW - 10 -
12.09.2019 12:00:00 26,0 19,0 29 16 NW - 10 -
12.09.2019 11:00:00 25,2 19,7 28 15 NW 1023,8 10 0,0
12.09.2019 10:00:00 25,0 19,0 29 16 NW - 10 -
12.09.2019 09:00:00 24,0 19,0 29 16 NW - 10 -
12.09.2019 08:00:00 23,4 19,2 29 16 NW 1022,0 10 -
12.09.2019 07:00:00 24,0 19,0 22 12 NW - 10 -
12.09.2019 06:00:00 23,0 19,0 22 12 NW - 10 -
12.09.2019 05:00:00 23,8 19,1 21 11 NNW 1020,7 10 0,0
12.09.2019 04:00:00 24,0 19,0 21 11 NNW - 10 -
12.09.2019 03:00:00 24,0 19,0 22 12 NNW - 10 -
12.09.2019 02:00:00 24,2 18,1 16 9 NNW 1020,8 10 -
12.09.2019 01:00:00 24,0 17,0 18 10 NW - 10 -
12.09.2019 00:00:00 24,0 18,0 16 9 NW - 10 -
11.09.2019 23:00:00 24,1 17,7 13 7 NNW 1020,8 10 0,0
11.09.2019 22:00:00 24,0 19,0 11 6 NNW - 10 -
11.09.2019 21:00:00 24,0 18,0 13 7 NNW - 10 -
11.09.2019 20:00:00 23,9 17,4 11 6 NNW 1019,6 10 -
11.09.2019 19:00:00 24,0 17,0 13 7 NNW - 10 -
11.09.2019 18:00:00 24,0 18,0 16 9 N - 10 -
11.09.2019 17:00:00 24,8 18,7 15 8 N 1018,6 10 0,0
11.09.2019 16:00:00 23,0 19,0 11 6 WNW - 10 -
11.09.2019 15:00:00 24,0 17,0 15 8 WNW - 10 -
11.09.2019 14:00:00 23,0 17,0 15 8 SE - 10 -
11.09.2019 13:00:00 25,0 18,0 5 3 NNE - 10 -
11.09.2019 12:00:00 25,0 17,0 9 5 N - 10 -
11.09.2019 11:00:00 23,7 18,0 18 10 E 1017,2 10 0,0
11.09.2019 10:00:00 24,0 18,0 24 13 E - 10 -
11.09.2019 09:00:00 25,0 16,0 22 12 N - 10 -
11.09.2019 08:00:00 25,1 15,5 16 9 N 1016,1 10 -
11.09.2019 07:00:00 25,0 15,0 21 11 N - 10 -
11.09.2019 06:00:00 25,0 15,0 21 11 N - 10 -
11.09.2019 05:00:00 25,0 15,3 21 11 N 1014,7 10 0,0
11.09.2019 04:00:00 25,0 16,0 16 9 NNW - 10 -
11.09.2019 03:00:00 25,0 16,0 16 9 N - 10 -
11.09.2019 02:00:00 25,2 15,5 13 7 NNW 1014,6 10 -
11.09.2019 01:00:00 25,0 15,0 13 7 N - 10 -
11.09.2019 00:00:00 25,0 15,0 15 8 N - 10 -
10.09.2019 23:00:00 25,5 15,2 13 7 N 1014,6 10 0,0
10.09.2019 22:00:00 25,0 15,0 15 8 N - 10 -
10.09.2019 21:00:00 25,0 15,0 15 8 N - 10 -
10.09.2019 20:00:00 25,3 14,9 18 10 N 1013,7 10 -
10.09.2019 19:00:00 25,0 16,0 18 10 N - 10 -
10.09.2019 18:00:00 26,0 15,0 16 9 N - 10 -
10.09.2019 17:00:00 27,0 15,4 18 10 N 1013,6 10 0,0
10.09.2019 16:00:00 27,0 15,0 18 10 N - 10 -
10.09.2019 15:00:00 27,0 15,0 18 10 NNE - 10 -
10.09.2019 14:00:00 27,9 13,5 18 10 NNE 1014,3 10 -
10.09.2019 13:00:00 28,0 13,0 16 9 NNE - 10 -
10.09.2019 12:00:00 28,0 14,0 15 8 NNE - 10 -
10.09.2019 11:00:00 27,3 16,8 15 8 NNE 1015,2 10 0,0
10.09.2019 10:00:00 24,0 18,0 11 6 WNW - 10 -
10.09.2019 09:00:00 23,0 18,0 21 11 WNW - 10 -
10.09.2019 08:00:00 25,6 18,5 22 12 ENE 1014,4 10 -
10.09.2019 07:00:00 25,0 18,0 21 11 NE - 10 -
10.09.2019 06:00:00 25,0 16,0 22 12 NE - 10 -
10.09.2019 05:00:00 24,8 17,5 22 12 NE 1014,2 10 0,0
10.09.2019 04:00:00 24,0 19,0 26 14 NE - 10 -
10.09.2019 03:00:00 24,0 21,0 21 11 NNE - 10 -
10.09.2019 02:00:00 24,6 19,9 13 7 N 1014,4 10 -
10.09.2019 01:00:00 23,0 18,0 5 3 SW - 10 -
10.09.2019 00:00:00 23,0 18,0 4 2 SSW - 10 -
09.09.2019 23:00:00 23,5 18,0 9 5 SW 1014,4 10 0,0
09.09.2019 22:00:00 25,0 18,0 5 3 S - 10 -
09.09.2019 21:00:00 25,0 18,0 9 5 S - 10 -
09.09.2019 20:00:00 26,0 17,7 18 10 SW 1013,5 10 -
09.09.2019 19:00:00 28,0 16,0 16 9 SW - 10 -
09.09.2019 18:00:00 28,0 16,0 8 4 S - 10 -
09.09.2019 17:00:00 26,7 19,0 15 8 ESE 1013,1 10 0,0
09.09.2019 16:00:00 27,0 17,0 15 8 E - 10 -
09.09.2019 15:00:00 28,0 16,0 16 9 E - 10 -
09.09.2019 14:00:00 27,8 16,1 18 10 ENE 1013,7 10 -
09.09.2019 13:00:00 28,0 15,0 8 4 - - 10 -
09.09.2019 12:00:00 28,0 14,0 13 7 SSW - 10 -
09.09.2019 11:00:00 25,8 15,1 5 3 - 1014,6 10 0,0
09.09.2019 10:00:00 25,0 16,0 11 6 WSW - 10 -

tt = temperature
td = dewpoint
ff = wind speed
dd = wind direction
ppp = reduced air pressure
vv = visibility
rr = precipitation

Next stations